Radiation Dose at Monitoring Post of Fukushima Daini Nuclear Power Station
Date,Time,MP-1(microSv/h),MP-2(microSv/h),MP-3(microSv/h),MP-4(microSv/h),MP-5(microSv/h),MP-6(microSv/h),MP-7(microSv/h),Wind Direction,Wind Velocity(m/s),Rain
2019/06/07,00:00,0.198,0.183,0.309,0.290,0.276,0.153,0.093,north-northwest,1.9,No
2019/06/07,00:10,0.201,0.183,0.307,0.290,0.277,0.153,0.094,north-northwest,1.5,No
2019/06/07,00:20,0.199,0.183,0.308,0.289,0.275,0.152,0.094,north,2.3,No
2019/06/07,00:30,0.200,0.183,0.306,0.291,0.275,0.152,0.093,north,3.0,No
2019/06/07,00:40,0.200,0.184,0.308,0.289,0.275,0.153,0.093,north,2.6,No
2019/06/07,00:50,0.200,0.183,0.308,0.291,0.277,0.153,0.093,north,2.4,No
2019/06/07,01:00,0.200,0.183,0.308,0.288,0.275,0.153,0.094,north,3.2,No
2019/06/07,01:10,0.200,0.183,0.307,0.290,0.276,0.153,0.094,north-northwest,2.9,No
2019/06/07,01:20,0.200,0.184,0.306,0.288,0.277,0.151,0.094,north,2.7,No
2019/06/07,01:30,0.199,0.183,0.308,0.290,0.275,0.153,0.094,north-northwest,3.2,No
2019/06/07,01:40,0.200,0.182,0.307,0.289,0.276,0.152,0.093,north,2.3,No
2019/06/07,01:50,0.199,0.184,0.308,0.290,0.275,0.153,0.095,north-northwest,1.7,No
2019/06/07,02:00,0.200,0.183,0.307,0.288,0.277,0.153,0.093,north-northwest,1.6,No
2019/06/07,02:10,0.200,0.184,0.307,0.289,0.274,0.153,0.094,north-northwest,2.1,No
2019/06/07,02:20,0.201,0.183,0.307,0.289,0.277,0.152,0.093,north-northwest,1.0,No
2019/06/07,02:30,0.200,0.184,0.307,0.289,0.275,0.153,0.093,north-northeast,1.7,No
2019/06/07,02:40,0.202,0.183,0.308,0.291,0.277,0.152,0.093,north,1.5,No
2019/06/07,02:50,0.200,0.183,0.306,0.289,0.273,0.153,0.093,northwest,1.9,No
2019/06/07,03:00,0.199,0.183,0.309,0.291,0.277,0.153,0.094,north-northwest,1.7,No
2019/06/07,03:10,0.200,0.184,0.308,0.288,0.274,0.152,0.094,north-northeast,1.3,No
2019/06/07,03:20,0.199,0.185,0.308,0.291,0.277,0.152,0.094,north-northwest,1.7,No
2019/06/07,03:30,0.200,0.183,0.306,0.290,0.274,0.153,0.094,north,1.4,No
2019/06/07,03:40,0.198,0.183,0.309,0.290,0.277,0.152,0.094,north-northeast,1.6,No
2019/06/07,03:50,0.201,0.185,0.306,0.290,0.274,0.152,0.093,north-northeast,1.5,No
2019/06/07,04:00,0.198,0.183,0.308,0.289,0.278,0.151,0.093,north,2.0,No
2019/06/07,04:10,0.201,0.183,0.307,0.290,0.275,0.152,0.093,north,2.8,No
2019/06/07,04:20,0.199,0.183,0.308,0.289,0.276,0.153,0.094,north-northwest,2.7,No
2019/06/07,04:30,0.199,0.184,0.307,0.289,0.276,0.152,0.093,north-northwest,4.0,No
2019/06/07,04:40,0.200,0.184,0.307,0.288,0.275,0.153,0.094,north-northwest,3.5,Yes
2019/06/07,04:50,0.200,0.185,0.309,0.290,0.276,0.153,0.093,north-northwest,4.3,Yes
2019/06/07,05:00,0.199,0.183,0.307,0.288,0.275,0.153,0.094,north-northwest,4.1,Yes
2019/06/07,05:10,0.200,0.182,0.309,0.291,0.277,0.152,0.094,north-northwest,3.6,No
2019/06/07,05:20,0.199,0.184,0.307,0.289,0.275,0.153,0.093,north-northwest,3.3,No
2019/06/07,05:30,0.199,0.183,0.308,0.291,0.275,0.152,0.094,north-northwest,2.5,No
2019/06/07,05:40,0.200,0.184,0.305,0.288,0.276,0.152,0.094,north-northwest,2.8,No
2019/06/07,05:50,0.199,0.182,0.309,0.290,0.276,0.152,0.094,north-northwest,2.3,Yes
2019/06/07,06:00,0.201,0.183,0.307,0.288,0.274,0.152,0.093,north,2.6,Yes
2019/06/07,06:10,0.200,0.184,0.309,0.290,0.278,0.153,0.094,north-northwest,3.5,Yes
2019/06/07,06:20,0.202,0.183,0.308,0.290,0.275,0.153,0.094,north-northwest,3.5,Yes
2019/06/07,06:30,0.200,0.184,0.309,0.290,0.278,0.153,0.095,north,2.8,Yes
2019/06/07,06:40,0.201,0.183,0.308,0.290,0.275,0.153,0.094,north-northwest,3.2,Yes
2019/06/07,06:50,0.200,0.185,0.308,0.290,0.278,0.153,0.095,north-northwest,3.3,Yes
2019/06/07,07:00,0.202,0.184,0.309,0.290,0.275,0.154,0.095,north-northwest,2.7,Yes
2019/06/07,07:10,0.201,0.186,0.308,0.290,0.278,0.153,0.094,north-northwest,2.2,Yes
2019/06/07,07:20,0.202,0.184,0.309,0.291,0.275,0.154,0.094,north,2.2,Yes
2019/06/07,07:30,0.200,0.185,0.308,0.290,0.278,0.154,0.095,north-northwest,3.0,Yes
2019/06/07,07:40,0.200,0.185,0.309,0.291,0.275,0.154,0.094,north-northwest,2.2,Yes
2019/06/07,07:50,0.201,0.183,0.308,0.290,0.279,0.153,0.095,north-northwest,1.3,Yes
2019/06/07,08:00,0.200,0.185,0.308,0.292,0.276,0.155,0.096,north-northwest,1.3,Yes
2019/06/07,08:10,0.201,0.184,0.309,0.289,0.278,0.154,0.095,northwest,1.9,Yes
2019/06/07,08:20,0.201,0.184,0.310,0.291,0.275,0.155,0.095,north-northwest,1.3,Yes
2019/06/07,08:30,0.202,0.186,0.309,0.289,0.277,0.154,0.095,north-northwest,1.8,Yes
2019/06/07,08:40,0.200,0.185,0.308,0.291,0.276,0.154,0.095,north-northwest,1.5,Yes
2019/06/07,08:50,0.202,0.185,0.309,0.290,0.277,0.154,0.095,north,1.0,Yes
2019/06/07,09:00,0.201,0.184,0.308,0.291,0.276,0.155,0.095,north,1.3,Yes
2019/06/07,09:10,0.201,0.185,0.309,0.291,0.277,0.154,0.095,north-northwest,1.9,Yes
2019/06/07,09:20,0.200,0.184,0.307,0.289,0.274,0.154,0.095,northwest,1.6,Yes
2019/06/07,09:30,0.201,0.185,0.309,0.290,0.278,0.153,0.094,west-northwest,0.7,Yes
2019/06/07,09:40,0.200,0.184,0.307,0.288,0.275,0.154,0.094,west-northwest,0.9,Yes
2019/06/07,09:50,0.201,0.185,0.308,0.291,0.277,0.154,0.095,west-northwest,1.5,Yes
2019/06/07,10:00,0.201,0.185,0.308,0.289,0.274,0.154,0.095,-,CALM,Yes
2019/06/07,10:10,0.200,0.184,0.310,0.290,0.279,0.154,0.095,-,CALM,Yes
2019/06/07,10:20,0.201,0.186,0.308,0.289,0.276,0.156,0.096,south-southeast,0.8,Yes
2019/06/07,10:30,0.200,0.185,0.309,0.291,0.277,0.155,0.096,south,1.3,Yes
2019/06/07,10:40,0.200,0.185,0.307,0.288,0.275,0.155,0.095,south-southeast,1.9,Yes
2019/06/07,10:50,0.200,0.184,0.309,0.291,0.276,0.155,0.095,south-southeast,2.3,Yes
2019/06/07,11:00,0.200,0.186,0.307,0.290,0.278,0.155,0.096,south-southeast,1.9,Yes
2019/06/07,11:10,0.202,0.186,0.310,0.292,0.277,0.155,0.096,south-southeast,1.1,Yes
2019/06/07,11:20,0.202,0.186,0.307,0.289,0.278,0.155,0.097,-,CALM,No
2019/06/07,11:30,0.202,0.185,0.309,0.292,0.276,0.155,0.096,southeast,1.0,Yes
2019/06/07,11:40,0.201,0.183,0.308,0.289,0.277,0.154,0.096,west-southwest,0.9,No
2019/06/07,11:50,0.201,0.185,0.307,0.290,0.276,0.154,0.095,east-northeast,0.8,No
2019/06/07,12:00,0.199,0.184,0.306,0.287,0.277,0.153,0.095,north-northeast,1.7,Yes
2019/06/07,12:10,0.201,0.183,0.308,0.289,0.274,0.154,0.093,north-northeast,0.9,Yes
2019/06/07,12:20,0.200,0.185,0.308,0.287,0.277,0.154,0.096,north-northwest,1.0,Yes
2019/06/07,12:30,0.201,0.185,0.310,0.292,0.276,0.155,0.096,north,1.7,Yes
2019/06/07,12:40,0.201,0.186,0.308,0.289,0.278,0.155,0.097,-,CALM,Yes
2019/06/07,12:50,0.203,0.186,0.309,0.291,0.277,0.155,0.095,west,0.7,Yes
2019/06/07,13:00,0.200,0.186,0.311,0.291,0.280,0.155,0.097,-,CALM,Yes
2019/06/07,13:10,0.203,0.187,0.310,0.292,0.277,0.156,0.097,-,CALM,Yes
2019/06/07,13:20,0.202,0.188,0.311,0.290,0.279,0.157,0.097,south,1.2,Yes
2019/06/07,13:30,0.204,0.188,0.309,0.293,0.278,0.158,0.097,south-southeast,1.9,Yes
2019/06/07,13:40,0.202,0.186,0.310,0.289,0.277,0.155,0.098,southeast,1.7,Yes
2019/06/07,13:50,0.202,0.185,0.309,0.292,0.278,0.156,0.096,southeast,1.6,No
2019/06/07,14:00,0.200,0.185,0.309,0.290,0.276,0.154,0.096,southeast,1.3,Yes
2019/06/07,14:10,0.201,0.185,0.308,0.292,0.278,0.155,0.096,south-southeast,1.5,Yes
2019/06/07,14:20,0.201,0.186,0.310,0.288,0.274,0.154,0.097,south-southeast,1.5,Yes
2019/06/07,14:30,0.202,0.185,0.307,0.290,0.279,0.154,0.096,southeast,1.5,Yes
2019/06/07,14:40,0.200,0.185,0.308,0.287,0.275,0.153,0.096,southeast,2.0,Yes
2019/06/07,14:50,0.202,0.184,0.306,0.290,0.276,0.155,0.094,southeast,1.6,Yes
2019/06/07,15:00,0.200,0.184,0.307,0.287,0.275,0.152,0.095,southeast,1.9,No
2019/06/07,15:10,0.201,0.183,0.306,0.289,0.275,0.154,0.093,east-southeast,2.0,No
2019/06/07,15:20,0.199,0.183,0.307,0.286,0.274,0.153,0.094,east-northeast,1.7,No
2019/06/07,15:30,0.200,0.181,0.306,0.289,0.273,0.153,0.094,east-northeast,1.3,No
2019/06/07,15:40,0.199,0.183,0.304,0.285,0.277,0.153,0.093,northeast,0.9,No
2019/06/07,15:50,0.199,0.181,0.306,0.289,0.273,0.153,0.093,-,CALM,No
2019/06/07,16:00,0.200,0.183,0.305,0.285,0.275,0.153,0.093,-,CALM,Yes
2019/06/07,16:10,0.198,0.182,0.305,0.288,0.275,0.151,0.094,south,1.1,Yes
2019/06/07,16:20,0.201,0.183,0.306,0.286,0.274,0.153,0.094,south,1.1,Yes
2019/06/07,16:30,0.198,0.182,0.307,0.288,0.275,0.152,0.094,south-southwest,1.0,Yes
2019/06/07,16:40,0.200,0.184,0.305,0.287,0.273,0.153,0.093,south,1.4,Yes
2019/06/07,16:50,0.200,0.184,0.307,0.288,0.275,0.153,0.094,south-southwest,0.9,Yes
2019/06/07,17:00,0.203,0.186,0.308,0.290,0.275,0.156,0.097,south-southwest,4.5,Yes
2019/06/07,17:10,0.205,0.188,0.313,0.293,0.281,0.161,0.101,-,CALM,Yes
2019/06/07,17:20,0.206,0.191,0.311,0.292,0.280,0.159,0.101,-,CALM,Yes
2019/06/07,17:30,0.205,0.190,0.311,0.292,0.281,0.158,0.100,-,CALM,Yes
2019/06/07,17:40,0.206,0.190,0.311,0.293,0.278,0.158,0.100,-,CALM,Yes
2019/06/07,17:50,0.206,0.190,0.310,0.291,0.282,0.160,0.102,northeast,3.1,Yes
2019/06/07,18:00,0.208,0.192,0.311,0.293,0.279,0.163,0.104,north-northeast,1.5,Yes
2019/06/07,18:10,0.208,0.192,0.313,0.293,0.280,0.163,0.106,-,CALM,Yes
2019/06/07,18:20,0.208,0.194,0.310,0.291,0.281,0.164,0.106,-,CALM,Yes
2019/06/07,18:30,0.208,0.192,0.308,0.291,0.282,0.162,0.105,south-southeast,0.8,Yes
2019/06/07,18:40,0.207,0.192,0.309,0.290,0.279,0.164,0.106,east-southeast,0.6,Yes
2019/06/07,18:50,0.210,0.195,0.310,0.294,0.285,0.167,0.109,-,CALM,Yes
2019/06/07,19:00,0.210,0.195,0.311,0.291,0.282,0.166,0.107,southeast,1.2,Yes
2019/06/07,19:10,0.211,0.194,0.309,0.292,0.284,0.165,0.107,southeast,1.6,Yes
2019/06/07,19:20,0.207,0.193,0.311,0.289,0.281,0.162,0.105,south,2.6,Yes
2019/06/07,19:30,0.208,0.191,0.307,0.291,0.281,0.161,0.104,south-southeast,1.5,Yes
2019/06/07,19:40,0.207,0.192,0.309,0.290,0.279,0.163,0.106,northeast,3.4,Yes
2019/06/07,19:50,0.210,0.193,0.309,0.292,0.285,0.163,0.107,-,CALM,Yes
2019/06/07,20:00,0.209,0.196,0.309,0.290,0.281,0.165,0.107,southeast,0.9,Yes
2019/06/07,20:10,0.210,0.194,0.310,0.292,0.283,0.163,0.107,east,1.4,Yes
2019/06/07,20:20,0.207,0.193,0.308,0.291,0.281,0.162,0.105,east-northeast,2.3,No
2019/06/07,20:30,0.206,0.191,0.307,0.288,0.282,0.160,0.104,northeast,2.6,Yes
2019/06/07,20:40,0.202,0.191,0.303,0.288,0.278,0.158,0.102,northeast,2.2,Yes
2019/06/07,20:50,0.204,0.187,0.304,0.286,0.279,0.157,0.100,north,2.6,Yes
2019/06/07,21:00,0.202,0.186,0.300,0.286,0.276,0.155,0.101,north,2.6,Yes
2019/06/07,21:10,0.200,0.184,0.301,0.283,0.277,0.154,0.099,north-northwest,2.5,Yes
2019/06/07,21:20,0.198,0.183,0.298,0.284,0.273,0.156,0.100,north-northwest,3.2,Yes
2019/06/07,21:30,0.200,0.185,0.299,0.283,0.275,0.155,0.098,north,3.1,Yes
2019/06/07,21:40,0.199,0.183,0.297,0.283,0.272,0.155,0.098,north-northwest,4.1,Yes
2019/06/07,21:50,0.199,0.182,0.298,0.279,0.276,0.152,0.098,north-northwest,3.9,Yes
2019/06/07,22:00,0.198,0.182,0.297,0.281,0.272,0.154,0.098,north-northwest,3.9,Yes
2019/06/07,22:10,0.197,0.182,0.296,0.278,0.274,0.152,0.096,northwest,3.7,Yes
2019/06/07,22:20,0.197,0.179,0.296,0.280,0.272,0.152,0.096,north-northwest,3.1,Yes
2019/06/07,22:30,0.195,0.179,0.294,0.277,0.273,0.151,0.096,north-northwest,4.0,Yes
2019/06/07,22:40,0.195,0.179,0.296,0.278,0.270,0.151,0.096,north-northwest,4.8,Yes
2019/06/07,22:50,0.194,0.179,0.293,0.275,0.272,0.149,0.096,north-northwest,5.5,Yes
2019/06/07,23:00,0.195,0.179,0.293,0.277,0.269,0.150,0.094,north-northwest,6.3,No
2019/06/07,23:10,0.193,0.177,0.292,0.276,0.272,0.148,0.094,north-northwest,6.7,No
2019/06/07,23:20,0.193,0.178,0.293,0.276,0.270,0.148,0.093,north-northwest,7.1,No
2019/06/07,23:30,0.191,0.176,0.290,0.277,0.270,0.148,0.093,north-northwest,6.8,No
2019/06/07,23:40,0.193,0.176,0.293,0.275,0.268,0.147,0.092,north-northwest,7.0,No
2019/06/07,23:50,0.190,0.176,0.290,0.275,0.269,0.146,0.092,north-northwest,7.3,No
